Tracking 20083 objects as of 12-Dec-2019
HD Live streaming from Space Station
objects crossing your sky now

COSMOS 2251 DEB

Track COSMOS 2251 DEB now!
10-day predictions


NORAD ID: 34011
Int'l Code: 1993-036GW
Perigee: 758.7 km
Apogee: 827.3 km
Inclination: 74.0 °
Period: 100.6 minutes
Semi major axis: 7163 km
RCS: 0.04 m2 (small)
Launch date: June 16, 1993
Source: Commonwealth of Independent States (former USSR) (CIS)
Launch site: PLESETSK MISSILE AND SPACE COMPLEX (PKMTR)

Note: This is SATELLITE DEBRIS
aabbcc
Your satellite tracking list
Your tracking list is empty




NASA's NSSDC Master Catalog

Two Line Element Set (TLE):
1 34011U 93036GW  19345.82493904 -.00000069  00000-0 -15788-4 0  9991
2 34011  74.0193  31.5639 0047889 278.9154  80.6577 14.31768676564876
Source of the keplerian elements: AFSPC